<?xml version='1.0' encoding='UTF-8'?>
<gpx xmlns="http://www.topografix.com/GPX/1/1" creator="www.balnam.be" version="1.1" xmlns:xsi="http://www.w3.org/2001/XMLSchema-instance" xsi:schemaLocation="http://www.topografix.com/GPX/1/1 http://www.topografix.com/GPX/1/1/gpx.xsd">
<trk>
<name>ndsvc1</name>
<cmt>r</cmt>
<desc>Vaucelles Chemin n°1 Rue de la Joncquière / Rue de la Jonquière</desc>
<link href="https://chemins.be/vaucelles/chemin/1"/><trkseg>
<trkpt lat="50.113161" lon="4.743299"><time>2026-05-06T20:36:42Z</time></trkpt>
<trkpt lat="50.112762" lon="4.741464"><time>2026-05-06T20:46:42Z</time></trkpt>
<trkpt lat="50.111445" lon="4.737232"><time>2026-05-06T20:56:42Z</time></trkpt>
<trkpt lat="50.110057" lon="4.729812"><time>2026-05-06T21:06:42Z</time></trkpt>
</trkseg>
</trk>
<trk>
<name>ndsvc10</name>
<cmt>v</cmt>
<desc>Vaucelles Chemin n°10 </desc>
<link href="https://chemins.be/vaucelles/chemin/10"/><trkseg>
<trkpt lat="50.113551" lon="4.742156"><time>2026-05-06T20:36:42Z</time></trkpt>
<trkpt lat="50.113174" lon="4.742013"><time>2026-05-06T20:46:42Z</time></trkpt>
<trkpt lat="50.112869" lon="4.741899"><time>2026-05-06T20:56:42Z</time></trkpt>
</trkseg>
</trk>
<trk>
<name>ndsvc11</name>
<cmt>v</cmt>
<desc>Vaucelles Chemin n°11 </desc>
<link href="https://chemins.be/vaucelles/chemin/11"/><trkseg>
<trkpt lat="50.113632" lon="4.742128"><time>2026-05-06T20:36:42Z</time></trkpt>
<trkpt lat="50.113938" lon="4.742173"><time>2026-05-06T20:46:42Z</time></trkpt>
</trkseg>
</trk>
<trk>
<name>ndsvc12</name>
<cmt>r</cmt>
<desc>Vaucelles Chemin n°12 Rue du Vieux Cimetière</desc>
<link href="https://chemins.be/vaucelles/chemin/12"/><trkseg>
<trkpt lat="50.113913" lon="4.741641"><time>2026-05-06T20:36:42Z</time></trkpt>
<trkpt lat="50.113982" lon="4.742355"><time>2026-05-06T20:46:42Z</time></trkpt>
</trkseg></trk>
<trk>
<name>ndsvc12</name>
<cmt>q</cmt>
<desc>Vaucelles Chemin n°12 Rue du Vieux Cimetière</desc>
<link href="https://chemins.be/vaucelles/chemin/12"/><trkseg>
<trkpt lat="50.113982" lon="4.742355"><time>2026-05-06T20:46:42Z</time></trkpt>
<trkpt lat="50.114044" lon="4.742649"><time>2026-05-06T20:56:42Z</time></trkpt>
<trkpt lat="50.114359" lon="4.742791"><time>2026-05-06T21:06:42Z</time></trkpt>
<trkpt lat="50.114546" lon="4.743352"><time>2026-05-06T21:16:42Z</time></trkpt>
</trkseg>
</trk>
<trk>
<name>ndsvc13</name>
<cmt>v</cmt>
<desc>Vaucelles Chemin n°13 </desc>
<link href="https://chemins.be/vaucelles/chemin/13"/><trkseg>
<trkpt lat="50.113188" lon="4.743285"><time>2026-05-06T20:36:42Z</time></trkpt>
<trkpt lat="50.113393" lon="4.743762"><time>2026-05-06T20:46:42Z</time></trkpt>
<trkpt lat="50.113545" lon="4.743987"><time>2026-05-06T20:56:42Z</time></trkpt>
<trkpt lat="50.113580" lon="4.744435"><time>2026-05-06T21:06:42Z</time></trkpt>
<trkpt lat="50.113508" lon="4.744476"><time>2026-05-06T21:16:42Z</time></trkpt>
</trkseg>
</trk>
<trk>
<name>ndsvc15</name>
<cmt>d</cmt>
<desc>Vaucelles Sentier n°15 </desc>
<link href="https://chemins.be/vaucelles/sentier/15"/><trkseg>
<trkpt lat="50.116222" lon="4.739324"><time>2026-05-06T20:36:42Z</time></trkpt>
<trkpt lat="50.117198" lon="4.740492"><time>2026-05-06T20:46:42Z</time></trkpt>
<trkpt lat="50.118805" lon="4.741316"><time>2026-05-06T20:56:42Z</time></trkpt>
<trkpt lat="50.122314" lon="4.743231"><time>2026-05-06T21:06:42Z</time></trkpt>
</trkseg>
</trk>
<trk>
<name>ndsvc16</name>
<cmt>d</cmt>
<desc>Vaucelles Sentier n°16 </desc>
<link href="https://chemins.be/vaucelles/sentier/16"/><trkseg>
<trkpt lat="50.113578" lon="4.744938"><time>2026-05-06T20:36:42Z</time></trkpt>
<trkpt lat="50.114568" lon="4.747351"><time>2026-05-06T20:46:42Z</time></trkpt>
<trkpt lat="50.115281" lon="4.749398"><time>2026-05-06T20:56:42Z</time></trkpt>
<trkpt lat="50.115320" lon="4.751034"><time>2026-05-06T21:06:42Z</time></trkpt>
<trkpt lat="50.115682" lon="4.753036"><time>2026-05-06T21:16:42Z</time></trkpt>
</trkseg>
</trk>
<trk>
<name>ndsvc17</name>
<cmt>d</cmt>
<desc>Vaucelles Sentier n°17 </desc>
<link href="https://chemins.be/vaucelles/sentier/17"/><trkseg>
<trkpt lat="50.114572" lon="4.743408"><time>2026-05-06T20:36:42Z</time></trkpt>
<trkpt lat="50.114728" lon="4.745283"><time>2026-05-06T20:46:42Z</time></trkpt>
<trkpt lat="50.114636" lon="4.746009"><time>2026-05-06T20:56:42Z</time></trkpt>
<trkpt lat="50.114693" lon="4.747590"><time>2026-05-06T21:06:42Z</time></trkpt>
</trkseg>
</trk>
<trk>
<name>ndsvc18</name>
<cmt>d</cmt>
<desc>Vaucelles Sentier n°18 </desc>
<link href="https://chemins.be/vaucelles/sentier/18"/><trkseg>
<trkpt lat="50.113527" lon="4.743987"><time>2026-05-06T20:36:42Z</time></trkpt>
<trkpt lat="50.113834" lon="4.743584"><time>2026-05-06T20:46:42Z</time></trkpt>
<trkpt lat="50.114563" lon="4.743408"><time>2026-05-06T20:56:42Z</time></trkpt>
<trkpt lat="50.115300" lon="4.743596"><time>2026-05-06T21:06:42Z</time></trkpt>
<trkpt lat="50.115884" lon="4.743740"><time>2026-05-06T21:16:42Z</time></trkpt>
<trkpt lat="50.116369" lon="4.743786"><time>2026-05-06T21:26:42Z</time></trkpt>
<trkpt lat="50.117176" lon="4.744407"><time>2026-05-06T21:36:42Z</time></trkpt>
</trkseg>
</trk>
<trk>
<name>ndsvc19</name>
<cmt>v</cmt>
<desc>Vaucelles Sentier n°19 </desc>
<link href="https://chemins.be/vaucelles/sentier/19"/><trkseg>
<trkpt lat="50.112833" lon="4.741842"><time>2026-05-06T20:36:42Z</time></trkpt>
<trkpt lat="50.112304" lon="4.741545"><time>2026-05-06T20:46:42Z</time></trkpt>
<trkpt lat="50.110923" lon="4.740360"><time>2026-05-06T20:56:42Z</time></trkpt>
<trkpt lat="50.109988" lon="4.740394"><time>2026-05-06T21:06:42Z</time></trkpt>
<trkpt lat="50.109136" lon="4.739577"><time>2026-05-06T21:16:42Z</time></trkpt>
<trkpt lat="50.108653" lon="4.738776"><time>2026-05-06T21:26:42Z</time></trkpt>
<trkpt lat="50.107791" lon="4.738518"><time>2026-05-06T21:36:42Z</time></trkpt>
</trkseg>
</trk>
<trk>
<name>ndsvc2</name>
<cmt>v</cmt>
<desc>Vaucelles Chemin n°2 Rue de la Grotte</desc>
<link href="https://chemins.be/vaucelles/chemin/2"/><trkseg>
<trkpt lat="50.111634" lon="4.737359"><time>2026-05-06T20:36:42Z</time></trkpt>
<trkpt lat="50.113218" lon="4.735986"><time>2026-05-06T20:46:42Z</time></trkpt>
<trkpt lat="50.113806" lon="4.735117"><time>2026-05-06T20:56:42Z</time></trkpt>
<trkpt lat="50.114351" lon="4.735149"><time>2026-05-06T21:06:42Z</time></trkpt>
<trkpt lat="50.116051" lon="4.733604"><time>2026-05-06T21:16:42Z</time></trkpt>
<trkpt lat="50.117535" lon="4.733392"><time>2026-05-06T21:26:42Z</time></trkpt>
</trkseg>
</trk>
<trk>
<name>ndsvc20</name>
<cmt>d</cmt>
<desc>Vaucelles Sentier n°20 </desc>
<link href="https://chemins.be/vaucelles/sentier/20"/><trkseg>
<trkpt lat="50.112664" lon="4.741268"><time>2026-05-06T20:36:42Z</time></trkpt>
<trkpt lat="50.112026" lon="4.741109"><time>2026-05-06T20:46:42Z</time></trkpt>
<trkpt lat="50.110942" lon="4.740164"><time>2026-05-06T20:56:42Z</time></trkpt>
<trkpt lat="50.109220" lon="4.738822"><time>2026-05-06T21:06:42Z</time></trkpt>
<trkpt lat="50.107386" lon="4.737127"><time>2026-05-06T21:16:42Z</time></trkpt>
</trkseg>
</trk>
<trk>
<name>ndsvc21</name>
<cmt>d</cmt>
<desc>Vaucelles Sentier n°21 </desc>
<link href="https://chemins.be/vaucelles/sentier/21"/><trkseg>
<trkpt lat="50.112759" lon="4.747938"><time>2026-05-06T20:36:42Z</time></trkpt>
<trkpt lat="50.112598" lon="4.747811"><time>2026-05-06T20:46:42Z</time></trkpt>
<trkpt lat="50.112344" lon="4.748619"><time>2026-05-06T20:56:42Z</time></trkpt>
<trkpt lat="50.111894" lon="4.751482"><time>2026-05-06T21:06:42Z</time></trkpt>
</trkseg>
</trk>
<trk>
<name>ndsvc22</name>
<cmt>d</cmt>
<desc>Vaucelles Sentier n°22 </desc>
<link href="https://chemins.be/vaucelles/sentier/22"/><trkseg>
<trkpt lat="50.114108" lon="4.735081"><time>2026-05-06T20:36:42Z</time></trkpt>
<trkpt lat="50.114396" lon="4.733899"><time>2026-05-06T20:46:42Z</time></trkpt>
<trkpt lat="50.114176" lon="4.732401"><time>2026-05-06T20:56:42Z</time></trkpt>
<trkpt lat="50.113167" lon="4.727430"><time>2026-05-06T21:06:42Z</time></trkpt>
<trkpt lat="50.112368" lon="4.723985"><time>2026-05-06T21:16:42Z</time></trkpt>
</trkseg>
</trk>
<trk>
<name>ndsvc23</name>
<cmt>d</cmt>
<desc>Vaucelles Sentier n°23 </desc>
<link href="https://chemins.be/vaucelles/sentier/23"/><trkseg>
<trkpt lat="50.111663" lon="4.722400"><time>2026-05-06T20:36:42Z</time></trkpt>
<trkpt lat="50.111056" lon="4.726757"><time>2026-05-06T20:46:42Z</time></trkpt>
<trkpt lat="50.110004" lon="4.729713"><time>2026-05-06T20:56:42Z</time></trkpt>
<trkpt lat="50.109613" lon="4.730969"><time>2026-05-06T21:06:42Z</time></trkpt>
<trkpt lat="50.107960" lon="4.736198"><time>2026-05-06T21:16:42Z</time></trkpt>
</trkseg>
</trk>
<trk>
<name>ndsvc24</name>
<cmt>v</cmt>
<desc>Vaucelles Sentier n°24 </desc>
<link href="https://chemins.be/vaucelles/sentier/24"/><trkseg>
<trkpt lat="50.106742" lon="4.734819"><time>2026-05-06T20:36:42Z</time></trkpt>
<trkpt lat="50.106860" lon="4.734387"><time>2026-05-06T20:46:42Z</time></trkpt>
<trkpt lat="50.106800" lon="4.733603"><time>2026-05-06T20:56:42Z</time></trkpt>
<trkpt lat="50.106056" lon="4.730061"><time>2026-05-06T21:06:42Z</time></trkpt>
<trkpt lat="50.104445" lon="4.727672"><time>2026-05-06T21:16:42Z</time></trkpt>
</trkseg>
</trk>
<trk>
<name>ndsvc3</name>
<cmt>v</cmt>
<desc>Vaucelles Chemin n°3 Passage privé</desc>
<link href="https://chemins.be/vaucelles/chemin/3"/><trkseg>
<trkpt lat="50.114387" lon="4.739450"><time>2026-05-06T20:36:42Z</time></trkpt>
<trkpt lat="50.114876" lon="4.738601"><time>2026-05-06T20:46:42Z</time></trkpt>
<trkpt lat="50.115213" lon="4.738358"><time>2026-05-06T20:56:42Z</time></trkpt>
<trkpt lat="50.115428" lon="4.738341"><time>2026-05-06T21:06:42Z</time></trkpt>
</trkseg></trk>
<trk>
<name>ndsvc3</name>
<cmt>q</cmt>
<desc>Vaucelles Chemin n°3 Passage privé</desc>
<link href="https://chemins.be/vaucelles/chemin/3"/><trkseg>
<trkpt lat="50.115428" lon="4.738341"><time>2026-05-06T21:06:42Z</time></trkpt>
<trkpt lat="50.115820" lon="4.738510"><time>2026-05-06T21:16:42Z</time></trkpt>
<trkpt lat="50.116043" lon="4.738980"><time>2026-05-06T21:26:42Z</time></trkpt>
</trkseg></trk>
<trk>
<name>ndsvc3</name>
<cmt>v</cmt>
<desc>Vaucelles Chemin n°3 Passage privé</desc>
<link href="https://chemins.be/vaucelles/chemin/3"/><trkseg>
<trkpt lat="50.116043" lon="4.738980"><time>2026-05-06T21:26:42Z</time></trkpt>
<trkpt lat="50.116658" lon="4.740586"><time>2026-05-06T21:36:42Z</time></trkpt>
<trkpt lat="50.117310" lon="4.742087"><time>2026-05-06T21:46:42Z</time></trkpt>
<trkpt lat="50.117319" lon="4.744786"><time>2026-05-06T21:56:42Z</time></trkpt>
<trkpt lat="50.117990" lon="4.745840"><time>2026-05-06T22:06:42Z</time></trkpt>
<trkpt lat="50.122194" lon="4.747062"><time>2026-05-06T22:16:42Z</time></trkpt>
</trkseg>
</trk>
<trk>
<name>ndsvc3bis</name>
<cmt>v</cmt>
<desc>Vaucelles Chemin n°3bis </desc>
<link href="https://chemins.be/vaucelles/chemin/3bis"/><trkseg>
<trkpt lat="50.115445" lon="4.738322"><time>2026-05-06T20:36:42Z</time></trkpt>
<trkpt lat="50.115692" lon="4.738109"><time>2026-05-06T20:46:42Z</time></trkpt>
<trkpt lat="50.115907" lon="4.738018"><time>2026-05-06T20:56:42Z</time></trkpt>
</trkseg>
</trk>
<trk>
<name>ndsvc4</name>
<cmt>r</cmt>
<desc>Vaucelles Chemin n°4 Rue d'Aubrives</desc>
<link href="https://chemins.be/vaucelles/chemin/4"/><trkseg>
<trkpt lat="50.113196" lon="4.743579"><time>2026-05-06T20:36:42Z</time></trkpt>
<trkpt lat="50.113276" lon="4.743971"><time>2026-05-06T20:46:42Z</time></trkpt>
<trkpt lat="50.113084" lon="4.744850"><time>2026-05-06T20:56:42Z</time></trkpt>
<trkpt lat="50.112744" lon="4.747113"><time>2026-05-06T21:06:42Z</time></trkpt>
<trkpt lat="50.112787" lon="4.747798"><time>2026-05-06T21:16:42Z</time></trkpt>
</trkseg></trk>
<trk>
<name>ndsvc4</name>
<cmt>v</cmt>
<desc>Vaucelles Chemin n°4 Rue d'Aubrives</desc>
<link href="https://chemins.be/vaucelles/chemin/4"/><trkseg>
<trkpt lat="50.112787" lon="4.747798"><time>2026-05-06T21:16:42Z</time></trkpt>
<trkpt lat="50.112827" lon="4.751965"><time>2026-05-06T21:26:42Z</time></trkpt>
</trkseg>
</trk>
<trk>
<name>ndsvc4bis</name>
<cmt>v</cmt>
<desc>Vaucelles Sentier n°4bis </desc>
<link href="https://chemins.be/vaucelles/sentier/4bis"/><trkseg>
<trkpt lat="50.113329" lon="4.744111"><time>2026-05-06T20:36:42Z</time></trkpt>
<trkpt lat="50.113427" lon="4.744462"><time>2026-05-06T20:46:42Z</time></trkpt>
<trkpt lat="50.113238" lon="4.744572"><time>2026-05-06T20:56:42Z</time></trkpt>
</trkseg>
</trk>
<trk>
<name>ndsvc6</name>
<cmt>v</cmt>
<desc>Vaucelles Chemin n°6 </desc>
<link href="https://chemins.be/vaucelles/chemin/6"/><trkseg>
<trkpt lat="50.114835" lon="4.737272"><time>2026-05-06T20:36:42Z</time></trkpt>
<trkpt lat="50.114585" lon="4.736795"><time>2026-05-06T20:46:42Z</time></trkpt>
<trkpt lat="50.114308" lon="4.736247"><time>2026-05-06T20:56:42Z</time></trkpt>
</trkseg>
</trk>
<trk>
<name>ndsvc7</name>
<cmt>r</cmt>
<desc>Vaucelles Chemin n°7 Rue de Hierges</desc>
<link href="https://chemins.be/vaucelles/chemin/7"/><trkseg>
<trkpt lat="50.111409" lon="4.737329"><time>2026-05-06T20:36:42Z</time></trkpt>
<trkpt lat="50.110896" lon="4.737577"><time>2026-05-06T20:46:42Z</time></trkpt>
<trkpt lat="50.108839" lon="4.737058"><time>2026-05-06T20:56:42Z</time></trkpt>
<trkpt lat="50.107888" lon="4.736268"><time>2026-05-06T21:06:42Z</time></trkpt>
<trkpt lat="50.107512" lon="4.735985"><time>2026-05-06T21:16:42Z</time></trkpt>
<trkpt lat="50.106874" lon="4.735659"><time>2026-05-06T21:26:42Z</time></trkpt>
</trkseg>
</trk>
<trk>
<name>ndsvc9</name>
<cmt>v</cmt>
<desc>Vaucelles Chemin n°9 </desc>
<link href="https://chemins.be/vaucelles/chemin/9"/><trkseg>
<trkpt lat="50.106651" lon="4.735014"><time>2026-05-06T20:36:42Z</time></trkpt>
<trkpt lat="50.106724" lon="4.734749"><time>2026-05-06T20:46:42Z</time></trkpt>
<trkpt lat="50.106608" lon="4.734413"><time>2026-05-06T20:56:42Z</time></trkpt>
<trkpt lat="50.106366" lon="4.734243"><time>2026-05-06T21:06:42Z</time></trkpt>
</trkseg>
</trk>
<trk>
<name>ndsvci1</name>
<cmt>v</cmt>
<desc>Vaucelles Sentier n°i1 </desc>
<link href="https://chemins.be/vaucelles/sentier/i1"/><trkseg>
<trkpt lat="50.117828" lon="4.745741"><time>2026-05-06T20:36:42Z</time></trkpt>
<trkpt lat="50.117532" lon="4.745669"><time>2026-05-06T20:46:42Z</time></trkpt>
<trkpt lat="50.116831" lon="4.745551"><time>2026-05-06T20:56:42Z</time></trkpt>
<trkpt lat="50.116761" lon="4.747718"><time>2026-05-06T21:06:42Z</time></trkpt>
<trkpt lat="50.116495" lon="4.748523"><time>2026-05-06T21:16:42Z</time></trkpt>
<trkpt lat="50.116619" lon="4.749741"><time>2026-05-06T21:26:42Z</time></trkpt>
<trkpt lat="50.116613" lon="4.750756"><time>2026-05-06T21:36:42Z</time></trkpt>
<trkpt lat="50.116012" lon="4.751193"><time>2026-05-06T21:46:42Z</time></trkpt>
</trkseg>
</trk>
<trk>
<name>ndsvci10</name>
<cmt>v</cmt>
<desc>Vaucelles Sentier n°i10 </desc>
<link href="https://chemins.be/vaucelles/sentier/i10"/><trkseg>
<trkpt lat="50.117605" lon="4.734220"><time>2026-05-06T20:36:42Z</time></trkpt>
<trkpt lat="50.117619" lon="4.734409"><time>2026-05-06T20:46:42Z</time></trkpt>
<trkpt lat="50.118121" lon="4.734463"><time>2026-05-06T20:56:42Z</time></trkpt>
<trkpt lat="50.119265" lon="4.735542"><time>2026-05-06T21:06:42Z</time></trkpt>
<trkpt lat="50.120187" lon="4.736958"><time>2026-05-06T21:16:42Z</time></trkpt>
<trkpt lat="50.121847" lon="4.737130"><time>2026-05-06T21:26:42Z</time></trkpt>
<trkpt lat="50.125158" lon="4.737609"><time>2026-05-06T21:36:42Z</time></trkpt>
<trkpt lat="50.125538" lon="4.738124"><time>2026-05-06T21:46:42Z</time></trkpt>
</trkseg>
</trk>
<trk>
<name>ndsvci11</name>
<cmt>v</cmt>
<desc>Vaucelles Chemin n°i11 Sentierde crête</desc>
<link href="https://chemins.be/vaucelles/chemin/i11"/><trkseg>
<trkpt lat="50.116919" lon="4.741214"><time>2026-05-06T20:36:42Z</time></trkpt>
<trkpt lat="50.116722" lon="4.741536"><time>2026-05-06T20:46:42Z</time></trkpt>
<trkpt lat="50.116424" lon="4.741250"><time>2026-05-06T20:56:42Z</time></trkpt>
<trkpt lat="50.115846" lon="4.741300"><time>2026-05-06T21:06:42Z</time></trkpt>
<trkpt lat="50.115915" lon="4.743789"><time>2026-05-06T21:16:42Z</time></trkpt>
<trkpt lat="50.116217" lon="4.745670"><time>2026-05-06T21:26:42Z</time></trkpt>
<trkpt lat="50.116029" lon="4.745842"><time>2026-05-06T21:36:42Z</time></trkpt>
<trkpt lat="50.116043" lon="4.747015"><time>2026-05-06T21:46:42Z</time></trkpt>
<trkpt lat="50.116378" lon="4.747615"><time>2026-05-06T21:56:42Z</time></trkpt>
<trkpt lat="50.116157" lon="4.748096"><time>2026-05-06T22:06:42Z</time></trkpt>
<trkpt lat="50.116419" lon="4.748789"><time>2026-05-06T22:16:42Z</time></trkpt>
<trkpt lat="50.116602" lon="4.749669"><time>2026-05-06T22:26:42Z</time></trkpt>
</trkseg>
</trk>
<trk>
<name>ndsvci2</name>
<cmt>r</cmt>
<desc>Vaucelles Chemin n°i2 Rue du Bois du Fir</desc>
<link href="https://chemins.be/vaucelles/chemin/i2"/><trkseg>
<trkpt lat="50.117654" lon="4.734205"><time>2026-05-06T20:36:42Z</time></trkpt>
<trkpt lat="50.118582" lon="4.734019"><time>2026-05-06T20:46:42Z</time></trkpt>
<trkpt lat="50.119041" lon="4.734209"><time>2026-05-06T20:56:42Z</time></trkpt>
<trkpt lat="50.120277" lon="4.736307"><time>2026-05-06T21:06:42Z</time></trkpt>
<trkpt lat="50.123149" lon="4.736786"><time>2026-05-06T21:16:42Z</time></trkpt>
<trkpt lat="50.123759" lon="4.736829"><time>2026-05-06T21:26:42Z</time></trkpt>
<trkpt lat="50.125542" lon="4.737616"><time>2026-05-06T21:36:42Z</time></trkpt>
<trkpt lat="50.126141" lon="4.738436"><time>2026-05-06T21:46:42Z</time></trkpt>
</trkseg>
</trk>
<trk>
<name>ndsvci3</name>
<cmt>r</cmt>
<desc>Vaucelles Chemin n°i3 Rue des Carrières</desc>
<link href="https://chemins.be/vaucelles/chemin/i3"/><trkseg>
<trkpt lat="50.115051" lon="4.737078"><time>2026-05-06T20:36:42Z</time></trkpt>
<trkpt lat="50.115733" lon="4.737489"><time>2026-05-06T20:46:42Z</time></trkpt>
<trkpt lat="50.116054" lon="4.738358"><time>2026-05-06T20:56:42Z</time></trkpt>
<trkpt lat="50.116088" lon="4.739030"><time>2026-05-06T21:06:42Z</time></trkpt>
</trkseg>
</trk>
<trk>
<name>ndsvci4</name>
<cmt>v</cmt>
<desc>Vaucelles Chemin n°i4 </desc>
<link href="https://chemins.be/vaucelles/chemin/i4"/><trkseg>
<trkpt lat="50.115237" lon="4.738354"><time>2026-05-06T20:36:42Z</time></trkpt>
<trkpt lat="50.115299" lon="4.738830"><time>2026-05-06T20:46:42Z</time></trkpt>
<trkpt lat="50.115077" lon="4.740112"><time>2026-05-06T20:56:42Z</time></trkpt>
<trkpt lat="50.115318" lon="4.743596"><time>2026-05-06T21:06:42Z</time></trkpt>
<trkpt lat="50.115408" lon="4.746393"><time>2026-05-06T21:16:42Z</time></trkpt>
<trkpt lat="50.115833" lon="4.748242"><time>2026-05-06T21:26:42Z</time></trkpt>
<trkpt lat="50.116013" lon="4.751206"><time>2026-05-06T21:36:42Z</time></trkpt>
<trkpt lat="50.116037" lon="4.751837"><time>2026-05-06T21:46:42Z</time></trkpt>
<trkpt lat="50.115970" lon="4.753109"><time>2026-05-06T21:56:42Z</time></trkpt>
</trkseg>
</trk>
<trk>
<name>ndsvci5</name>
<cmt>v</cmt>
<desc>Vaucelles Sentier n°i5 </desc>
<link href="https://chemins.be/vaucelles/sentier/i5"/><trkseg>
<trkpt lat="50.116830" lon="4.734701"><time>2026-05-06T20:36:42Z</time></trkpt>
<trkpt lat="50.115972" lon="4.735925"><time>2026-05-06T20:46:42Z</time></trkpt>
<trkpt lat="50.115808" lon="4.736553"><time>2026-05-06T20:56:42Z</time></trkpt>
</trkseg>
</trk>
<trk>
<name>ndsvci6</name>
<cmt>q</cmt>
<desc>Vaucelles Chemin n°i6 </desc>
<link href="https://chemins.be/vaucelles/chemin/i6"/><trkseg>
<trkpt lat="50.117078" lon="4.741498"><time>2026-05-06T20:36:42Z</time></trkpt>
<trkpt lat="50.117466" lon="4.740914"><time>2026-05-06T20:46:42Z</time></trkpt>
<trkpt lat="50.117817" lon="4.740903"><time>2026-05-06T20:56:42Z</time></trkpt>
<trkpt lat="50.119969" lon="4.742584"><time>2026-05-06T21:06:42Z</time></trkpt>
</trkseg>
</trk>
<trk>
<name>ndsvci7</name>
<cmt>v</cmt>
<desc>Vaucelles Chemin n°i7 </desc>
<link href="https://chemins.be/vaucelles/chemin/i7"/><trkseg>
<trkpt lat="50.117838" lon="4.745615"><time>2026-05-06T20:36:42Z</time></trkpt>
<trkpt lat="50.117731" lon="4.742566"><time>2026-05-06T20:46:42Z</time></trkpt>
<trkpt lat="50.117817" lon="4.740945"><time>2026-05-06T20:56:42Z</time></trkpt>
</trkseg>
</trk>
<trk>
<name>ndsvci8</name>
<cmt>v</cmt>
<desc>Vaucelles Sentier n°i8 </desc>
<link href="https://chemins.be/vaucelles/sentier/i8"/><trkseg>
<trkpt lat="50.113312" lon="4.743888"><time>2026-05-06T20:36:42Z</time></trkpt>
<trkpt lat="50.113411" lon="4.743832"><time>2026-05-06T20:46:42Z</time></trkpt>
</trkseg>
</trk>
<trk>
<name>ndsvci9</name>
<cmt>v</cmt>
<desc>Vaucelles Chemin n°i9 Sentier</desc>
<link href="https://chemins.be/vaucelles/chemin/i9"/><trkseg>
<trkpt lat="50.108024" lon="4.721492"><time>2026-05-06T20:36:42Z</time></trkpt>
<trkpt lat="50.108200" lon="4.720026"><time>2026-05-06T20:46:42Z</time></trkpt>
<trkpt lat="50.108541" lon="4.720014"><time>2026-05-06T20:56:42Z</time></trkpt>
<trkpt lat="50.111006" lon="4.722633"><time>2026-05-06T21:06:42Z</time></trkpt>
<trkpt lat="50.111148" lon="4.723277"><time>2026-05-06T21:16:42Z</time></trkpt>
<trkpt lat="50.111515" lon="4.723727"><time>2026-05-06T21:26:42Z</time></trkpt>
<trkpt lat="50.111729" lon="4.724134"><time>2026-05-06T21:36:42Z</time></trkpt>
<trkpt lat="50.112364" lon="4.725481"><time>2026-05-06T21:46:42Z</time></trkpt>
<trkpt lat="50.113228" lon="4.727823"><time>2026-05-06T21:56:42Z</time></trkpt>
<trkpt lat="50.114429" lon="4.731642"><time>2026-05-06T22:06:42Z</time></trkpt>
<trkpt lat="50.115062" lon="4.732014"><time>2026-05-06T22:16:42Z</time></trkpt>
<trkpt lat="50.115814" lon="4.733816"><time>2026-05-06T22:26:42Z</time></trkpt>
</trkseg>
</trk>
</gpx>